Weather History for Morganton, NC

Change the Weather History Date:

Sunday, April 13, 2014

  Actual Average (KHKY) Record (KHKY)
Temperature  
Mean Temperature 63 °F -  
Max Temperature 81 °F 69 °F 86 °F (1977)
Min Temperature 45 °F 46 °F 30 °F (1975)
Degree Days  
Heating Degree Days 2    
Growing Degree Days 13 (Base 50)    
Moisture  
Dew Point 49 °F    
Average Humidity 61    
Maximum Humidity 99    
Minimum Humidity 32    
Precipitation  
Precipitation 0.00 in - - ()
Sea Level Pressure  
Sea Level Pressure 30.16 in    
Wind  
Wind Speed 3 mph (South)    
Max Wind Speed 15 mph    
Max Gust Speed 24 mph    
Visibility 10 miles    
Events      
Averages and records for this station are not official NWS values.
T = Trace of Precipitation, MM = Missing Value Source: NWS Daily Summary

Daily Weather History Graph

Daily Weather History Graph

Search for Another Location

Airport:

Trip Planner

Search our weather history database for the weather conditions in past years. The results will help you decide how hot, cold, wet, or windy it might be!

Date:

Astronomy

Apr. 13, 2014 Rise Set
Actual Time 6:56 AM EDT 7:58 PM EDT
Civil Twilight 6:30 AM EDT 8:24 PM EDT
Nautical Twilight 5:58 AM EDT 8:55 PM EDT
Astronomical Twilight 5:26 AM EDT 9:28 PM EDT
Moon 6:37 PM EDT (4/13) 5:50 AM EDT (4/13)
Length of Visible Light 13h 54m
Length of Day
13h 01m
Waxing Gibbous, 97% of the Moon is Illuminated
Apr 13
Waxing Gibbous
Apr 15
Full
Apr 22
Last Quarter
Apr 29
New
May 6
First Quarter

Hourly Weather History & Observations

Time (EDT) Temp. Dew Point Humidity Pressure Visibility Wind Dir Wind Speed Gust Speed Precip Events Conditions
12:15 AM 57.2 °F 47.7 °F 70% 30.18 in 10.0 mi Calm Calm - N/A   Clear
12:35 AM 54.1 °F 47.3 °F 78% 30.18 in 10.0 mi Calm Calm - N/A   Clear
12:55 AM 53.2 °F 47.3 °F 80% 30.18 in 10.0 mi Calm Calm - N/A   Clear
1:15 AM 52.3 °F 46.8 °F 81% 30.18 in 10.0 mi Calm Calm - N/A   Clear
1:35 AM 50.4 °F 46.9 °F 88% 30.17 in 10.0 mi Calm Calm - N/A   Clear
1:55 AM 51.8 °F 46.6 °F 82% 30.17 in 10.0 mi Calm Calm - N/A   Clear
2:15 AM 50.0 °F 46.2 °F 87% 30.17 in 10.0 mi Calm Calm - N/A   Clear
2:35 AM 49.8 °F 46.9 °F 90% 30.17 in 10.0 mi Calm Calm - N/A   Clear
2:55 AM 52.5 °F 46.8 °F 81% 30.17 in 10.0 mi Calm Calm - N/A   Clear
3:15 AM 49.5 °F 46.8 °F 90% 30.17 in 10.0 mi Calm Calm - N/A   Clear
3:35 AM 49.1 °F 46.9 °F 92% 30.17 in 10.0 mi Calm Calm - N/A   Clear
3:55 AM 49.1 °F 46.6 °F 91% 30.17 in 10.0 mi Calm Calm - N/A   Clear
4:15 AM 53.1 °F 48.2 °F 84% 30.17 in 10.0 mi Calm Calm - N/A   Clear
4:35 AM 50.0 °F 47.8 °F 92% 30.17 in 10.0 mi Calm Calm - N/A   Clear
4:55 AM 50.5 °F 48.6 °F 93% 30.17 in 10.0 mi Calm Calm - N/A   Clear
5:15 AM 47.7 °F 45.9 °F 93% 30.17 in 10.0 mi Calm Calm - N/A   Clear
5:35 AM 47.7 °F 46.0 °F 94% 30.18 in 10.0 mi Calm Calm - N/A   Clear
5:55 AM 48.9 °F 47.1 °F 93% 30.19 in 10.0 mi Calm Calm - N/A   Clear
6:15 AM 47.3 °F 46.6 °F 97% 30.19 in 10.0 mi Calm Calm - N/A   Clear
6:35 AM 46.6 °F 45.9 °F 97% 30.20 in 10.0 mi Calm Calm - N/A   Clear
6:55 AM 45.5 °F 45.1 °F 99% 30.20 in 7.0 mi Calm Calm - N/A   Clear
7:15 AM 48.6 °F 48.0 °F 98% 30.21 in 10.0 mi North 3.5 mph - N/A   Clear
7:35 AM 48.6 °F 47.7 °F 97% 30.21 in 7.0 mi Calm Calm - N/A   Clear
7:55 AM 51.8 °F 50.9 °F 97% 30.21 in 10.0 mi Calm Calm - N/A   Clear
8:15 AM 55.2 °F 50.4 °F 84% 30.21 in 10.0 mi North 3.5 mph - N/A   Clear
8:35 AM 59.4 °F 51.1 °F 74% 30.22 in 10.0 mi Calm Calm - N/A   Clear
8:55 AM 61.3 °F 50.9 °F 69% 30.21 in 10.0 mi Calm Calm - N/A   Clear
9:15 AM 62.8 °F 51.3 °F 66% 30.22 in 10.0 mi Calm Calm - N/A   Clear
9:35 AM 63.5 °F 51.4 °F 65% 30.22 in 10.0 mi Calm Calm - N/A   Clear
9:55 AM 64.8 °F 51.6 °F 62% 30.23 in 10.0 mi Calm Calm - N/A   Clear
10:15 AM 67.3 °F 51.8 °F 58% 30.22 in 10.0 mi Calm Calm - N/A   Clear
10:55 AM 69.8 °F 51.8 °F 53% 30.22 in 10.0 mi SW 4.6 mph - N/A   Clear
11:15 AM 72.1 °F 52.0 °F 49% 30.22 in 10.0 mi SSW 5.8 mph - N/A   Clear
11:35 AM 74.8 °F 51.4 °F 44% 30.21 in 10.0 mi SSW 10.4 mph 17.3 mph N/A   Clear
11:55 AM 76.3 °F 50.7 °F 41% 30.20 in 10.0 mi SSW 11.5 mph 19.6 mph N/A   Clear
12:15 PM 77.5 °F 50.4 °F 38% 30.20 in 10.0 mi SSW 11.5 mph 19.6 mph N/A   Clear
12:35 PM 77.9 °F 49.8 °F 37% 30.19 in 10.0 mi SSW 13.8 mph 18.4 mph N/A   Clear
12:55 PM 78.8 °F 50.0 °F 36% 30.18 in 10.0 mi SSW 15.0 mph 21.9 mph N/A   Clear
1:15 PM 79.0 °F 49.3 °F 35% 30.18 in 10.0 mi South 9.2 mph 24.2 mph N/A   Clear
1:35 PM 79.7 °F 49.1 °F 34% 30.17 in 10.0 mi SSW 10.4 mph 24.2 mph N/A   Clear
1:55 PM 79.2 °F 49.3 °F 35% 30.17 in 10.0 mi South 6.9 mph - N/A   Scattered Clouds
2:15 PM 80.4 °F 48.7 °F 33% 30.16 in 10.0 mi SSE 8.1 mph 21.9 mph N/A   Mostly Cloudy
2:35 PM 80.2 °F 48.4 °F 33% 30.16 in 10.0 mi SSW 8.1 mph 19.6 mph N/A   Mostly Cloudy
2:55 PM 80.4 °F 48.7 °F 33% 30.15 in 10.0 mi South 10.4 mph 18.4 mph N/A   Scattered Clouds
3:15 PM 80.8 °F 48.9 °F 33% 30.14 in 10.0 mi South 10.4 mph 16.1 mph N/A   Scattered Clouds
3:35 PM 81.3 °F 48.9 °F 32% 30.13 in 10.0 mi South 9.2 mph 18.4 mph N/A   Scattered Clouds
3:55 PM 81.1 °F 48.9 °F 32% 30.12 in 10.0 mi SSE 9.2 mph 17.3 mph N/A   Scattered Clouds
4:15 PM 80.8 °F 48.6 °F 32% 30.12 in 10.0 mi SSE 11.5 mph 18.4 mph N/A   Scattered Clouds
4:35 PM 80.8 °F 48.6 °F 32% 30.12 in 10.0 mi South 9.2 mph - N/A   Scattered Clouds
4:55 PM 79.9 °F 49.1 °F 34% 30.11 in 10.0 mi South 8.1 mph - N/A   Scattered Clouds
5:35 PM 79.5 °F 48.9 °F 34% 30.11 in 10.0 mi South 9.2 mph - N/A   Scattered Clouds
5:55 PM 78.4 °F 48.2 °F 34% 30.11 in 10.0 mi South 9.2 mph - N/A   Scattered Clouds
6:15 PM 79.2 °F 47.8 °F 33% 30.11 in 10.0 mi South 9.2 mph 17.3 mph N/A   Mostly Cloudy
6:35 PM 78.3 °F 48.0 °F 34% 30.11 in 10.0 mi South 8.1 mph 17.3 mph N/A   Scattered Clouds
6:55 PM 77.0 °F 48.9 °F 37% 30.10 in 10.0 mi SSE 5.8 mph - N/A   Scattered Clouds
7:15 PM 75.4 °F 48.7 °F 39% 30.10 in 10.0 mi South 9.2 mph - N/A   Clear
7:35 PM 74.3 °F 49.3 °F 41% 30.12 in 10.0 mi SSE 4.6 mph - N/A   Scattered Clouds
7:55 PM 72.7 °F 50.5 °F 46% 30.11 in 10.0 mi SSE 4.6 mph - N/A   Mostly Cloudy
8:15 PM 72.7 °F 50.4 °F 45% 30.10 in 10.0 mi SSE 5.8 mph - N/A   Scattered Clouds
8:35 PM 72.1 °F 50.4 °F 46% 30.10 in 10.0 mi SSE 4.6 mph - N/A   Clear
8:55 PM 71.2 °F 50.7 °F 48% 30.11 in 10.0 mi South 3.5 mph - N/A   Clear
9:15 PM 70.0 °F 51.1 °F 51% 30.12 in 10.0 mi SSE 4.6 mph - N/A   Clear
9:35 PM 69.6 °F 51.4 °F 52% 30.12 in 10.0 mi Calm Calm - N/A   Clear
9:55 PM 67.6 °F 52.3 °F 58% 30.12 in 10.0 mi SSE 3.5 mph - N/A   Scattered Clouds
10:15 PM 69.8 °F 52.7 °F 54% 30.12 in 10.0 mi SSE 4.6 mph - N/A   Mostly Cloudy
10:35 PM 69.6 °F 53.2 °F 56% 30.12 in 10.0 mi South 5.8 mph - N/A   Mostly Cloudy
10:55 PM 69.8 °F 53.2 °F 56% 30.12 in 10.0 mi South 4.6 mph - N/A   Mostly Cloudy
11:15 PM 69.8 °F 53.2 °F 56% 30.12 in 10.0 mi South 5.8 mph - N/A   Mostly Cloudy
11:35 PM 69.6 °F 53.4 °F 56% 30.11 in 10.0 mi South 6.9 mph - N/A   Mostly Cloudy
11:55 PM 69.8 °F 53.6 °F 56% 30.10 in 10.0 mi South 6.9 mph - N/A   Overcast